TIME,DELAY(SENSOR),PRES,OXYGEN,RAWTEMP,T(OPTODE),TCPHASE,FLUOR,BETA(BETA700),BETA(BETA412),BETA(BETA440),CDOM,C(CSC),ED(ED412.40),ED(ED444.00),ED(ED489.70),ED(ED554.30),LU(LU411.80),LU(LU443.40),LU(LU489.60),LU(LU554.10),COMP,TILTX,TILTY,CHECK
1376794203,5808,865.6699829101562000,44.7776107788085940,660.0250854492188000,4.6271438598632810,54.2877311706543000,53,100,86,78,79,15320,2147753051,2147425353,2148012754,2147874944,2147638034,2147049929,2148262793,2147196187,1713,4,13,44093
1376797799,5806,934.2999877929688000,47.6094894409179700,667.5053710937500000,4.3805680274963380,53.9746093750000000,53,101,85,78,79,15321,2147753965,2147425874,2148013705,2147875035,2147639908,2147058203,2148262555,2147200804,356,4,13,28636
1376801399,5805,940.0300292968750000,48.0755310058593750,669.7297973632812000,4.3071231842041020,53.9365882873535160,53,99,88,78,79,15321,2147754523,2147424118,2148013924,2147876105,2147640109,2147054308,2148258422,2147199899,136,4,13,53144
1376804999,5809,964.9000244140625000,49.6585502624511700,673.3137207031250000,4.1886711120605470,53.7558403015136700,53,99,88,80,79,15321,2147754285,2147425682,2148011300,2147874880,2147640804,2147057371,2148260086,2147197933,703,4,13,10887
1376808599,5807,973.0599975585938000,50.0799598693847660,673.2260742187500000,4.1915659904479980,53.6968917846679700,52,103,84,79,79,15322,2147757248,2147423926,2148013174,2147871990,2147640585,2147056530,2148263350,2147200475,318,4,13,3848
1376812199,5806,970.8800048828125000,49.9404296875000000,673.5725097656250000,4.1801109313964840,53.7208213806152340,52,100,83,77,78,15321,2147757193,2147427026,2148014957,2147871826,2147641984,2147047259,2148261302,2147200274,25,4,13,9154
1376815799,5810,978.7800292968750000,50.5824890136718750,675.6007080078125000,4.1130070686340330,53.6595001220703100,53,99,85,82,79,15321,2147756982,2147424256,2148014656,2147874057,2147639140,2147054464,2148264301,2147197997,555,4,13,28522
1376819399,5809,985.6900024414062000,50.6205711364746100,674.7736206054688000,4.1403789520263670,53.6456909179687500,53,98,88,79,78,15318,2147754852,2147424320,2148012013,2147873910,2147644937,2147054848,2148263442,2147195099,3029,4,13,19133
1376822999,5811,975.8599853515625000,49.8664283752441400,674.2271118164062000,4.1584591865539550,53.7450294494628900,52,100,86,79,80,15261,2147754980,2147424365,2148014290,2147872749,2147639716,2147053293,2148263945,2147194715,3368,4,13,40905
1376826599,5808,989.7899780273438000,49.7217407226562500,673.2255859375000000,4.1915841102600100,53.7522010803222660,52,97,79,78,79,15317,2147757184,2147427145,2148015698,2147873792,2147643392,2147055652,2148262025,2147196562,545,4,13,29215
1376830199,5809,984.6699829101562000,49.4286499023437500,673.4539794921875000,4.1840319633483890,53.7910308837890600,52,101,86,78,79,15317,2147759533,2147422756,2148015853,2147873956,2147640493,2147053906,2148262509,2147199734,3540,4,13,38983
1376833799,5809,986.3099975585938000,49.7270317077636700,673.9686279296875000,4.1670107841491700,53.7584114074707000,52,98,84,79,80,15316,2147756498,2147425462,2148012333,2147876269,2147641682,2147053394,2148261184,2147197824,477,4,13,11501
1376837399,5810,981.9400024414062000,49.9335289001464840,675.2750244140625000,4.1237850189208980,53.7427711486816400,53,99,85,78,79,15316,2147755995,2147425152,2148016704,2147872868,2147641828,2147056548,2148262848,2147196580,3334,4,13,6011
1376840999,5809,981.7199707031250000,50.1231613159179700,675.0059814453125000,4.1326870918273930,53.7131996154785160,52,99,82,78,78,15318,2147756937,2147425014,2148013348,2147873645,2147642916,2147055808,2148258450,2147201673,32,4,13,46885
1376844599,5807,987.5100097656250000,50.5453910827636700,675.2753295898438000,4.1237750053405760,53.6623916625976560,52,98,86,79,80,15317,2147754998,2147424740,2148015798,2147872896,2147643968,2147052498,2148265709,2147199533,2773,4,13,1487
1376848199,5809,983.5200195312500000,50.0102081298828100,674.6832275390625000,4.1433701515197750,53.7284698486328100,52,99,87,78,79,15317,2147756772,2147423826,2148013522,2147875081,2147641152,2147051492,2148260233,2147196105,1107,4,13,41109
1376851799,5810,984.5700073242188000,49.7000808715820300,674.4965820312500000,4.1495437622070310,53.7648391723632800,52,97,82,79,78,15315,2147755794,2147423744,2148017216,2147875145,2147639332,2147057261,2148264722,2147196333,90,4,13,13572
1376855399,5810,988.1400146484375000,49.8552589416503900,674.5576782226562000,4.1475219726562500,53.7495117187500000,53,97,81,77,79,15312,2147755638,2147425252,2148013586,2147875620,2147641170,2147058322,2148258532,2147194870,3552,4,13,21922
1376858999,5812,984.8300170898438000,49.9331398010253900,675.1884765625000000,4.1266498565673830,53.7437286376953100,53,98,86,78,78,15317,2147754989,2147421476,2148016731,2147873627,2147642121,2147057069,2148262390,2147196827,280,4,13,25042
1376862599,5811,993.2399902343750000,50.0615081787109400,674.7700195312500000,4.1404948234558105,53.7207603454589840,53,100,86,81,78,15316,2147756653,2147424146,2148016740,2147874633,2147641380,2147055204,2148266706,2147197778,119,4,13,36736
1376866199,5808,993.7500000000000000,49.3623695373535160,674.1251831054688000,4.1618270874023440,53.8100090026855500,53,97,85,79,79,15314,2147756873,2147426422,2148015616,2147876818,2147639104,2147053028,2148259026,2147199378,3593,3,13,63277
1376869799,5810,994.1799926757812000,49.3774299621582000,673.9459228515625000,4.1677632331848145,53.8081588745117200,52,97,85,78,79,15313,2147754925,2147425600,2148014528,2147874733,2147642514,2147054454,2148260333,2147197833,169,4,13,30140
1376873399,5808,991.1300048828125000,49.6582984924316400,674.5468750000000000,4.1478791236877440,53.7737808227539060,53,98,85,80,79,15317,2147757613,2147427291,2148013778,2147875300,2147639469,2147057426,2148256155,2147197842,3525,4,13,34432
1376876999,5810,989.4299926757812000,49.4260482788085940,674.6973266601562000,4.1429018974304200,53.8100395202636700,52,99,86,78,79,15312,2147755776,2147425005,2148011739,2147873179,2147643072,2147054902,2148260443,2147196032,3581,4,13,50592
1376880599,5807,996.4199829101562000,49.6793403625488300,674.5668945312500000,4.1472167968750000,53.7705307006835940,53,98,84,78,79,15316,2147754587,2147423506,2148013842,2147873115,2147639561,2147046683,2148260955,2147195419,3345,4,13,29450
1376884199,5809,989.0700073242188000,49.5121688842773440,674.7011718750000000,4.1427750587463380,53.7947006225585940,52,98,85,78,79,15315,2147755382,2147423058,2148017188,2147873782,2147643904,2147055972,2148264566,2147198656,3250,4,13,56882
1376887799,5809,985.8099975585938000,50.0993690490722660,675.9802856445312000,4.1004409790039060,53.7349586486816400,52,98,88,79,80,15315,2147755803,2147424256,2148013888,2147872795,2147640137,2147049984,2148261732,2147197101,416,4,13,24672
1376891399,5809,989.5100097656250000,50.7442207336425800,675.9401245117188000,4.1017742156982420,53.6411514282226560,52,100,88,78,79,15316,2147757906,2147424393,2148013568,2147876379,2147641453,2147053065,2148260626,2147201078,3556,4,13,22446
1376894999,5810,987.4299926757812000,50.3741493225097660,675.7313232421875000,4.1086850166320800,53.6889610290527340,51,101,87,79,79,15313,2147756891,2147428032,2148013138,2147874176,2147641956,2147057801,2148262491,2147198500,81,4,13,46215
1376898599,5810,995.7600097656250000,50.4499588012695300,675.5615844726562000,4.1143021583557130,53.6768302917480500,53,97,85,79,79,15315,2147755538,2147426669,2148011264,2147875794,2147643181,2147055908,2148265051,2147199305,39,4,13,17379
1376902199,5803,991.1500244140625000,50.8652191162109400,675.9406738281250000,4.1017532348632810,53.6267585754394500,52,99,87,79,78,15311,2147757129,2147424210,2148012315,2147874176,2147640941,2147058605,2148264310,2147192530,3507,4,13,30632
1376905799,5810,996.9199829101562000,49.9947319030761700,674.5676879882812000,4.1471900939941410,53.7258491516113300,53,98,87,79,79,15313,2147755766,2147426843,2148011904,2147872731,2147642678,2147055204,2148265929,2147199515,3390,4,13,7946
1376909399,5806,988.0200195312500000,49.7537918090820300,675.0780029296875000,4.1303038597106930,53.7694511413574200,52,99,85,79,79,15312,2147755062,2147423725,2148013860,2147874331,2147642944,2147054710,2148259181,2147198052,362,4,13,39190
1376912999,5812,993.9799804687500000,49.6637306213378900,675.0637207031250000,4.1307787895202640,53.7794799804687500,53,99,85,78,79,15297,2147759680,2147425782,2148014601,2147872576,2147641280,2147050212,2148261110,2147197485,44,4,13,1660
1376916599,5808,994.0999755859375000,50.5591011047363300,675.9160156250000000,4.1025729179382320,53.6698493957519500,51,99,86,78,78,15310,2147757101,2147425206,2148014601,2147873462,2147643373,2147051556,2148259684,2147197787,599,4,13,62327
1376920199,5808,993.4899902343750000,50.1790809631347660,675.9343872070312000,4.1019592285156250,53.7221488952636700,51,99,84,78,79,15313,2147757632,2147426614,2148012699,2147876699,2147642642,2147048649,2148262537,2147196379,503,4,13,27987
1376923799,5809,992.6900024414062000,50.0758705139160160,675.8402709960938000,4.1050758361816410,53.7304306030273440,52,97,86,79,79,15311,2147758509,2147422537,2148014509,2147873984,2147641115,2147048740,2148268269,2147201819,709,4,13,39898
1376927399,5809,995.6599731445312000,50.2588806152343750,675.5524291992188000,4.1146049499511720,53.7060089111328100,52,97,87,77,79,15308,2147756425,2147424146,2148011218,2147877942,2147642185,2147056173,2148261001,2147199305,3334,4,13,53185
1376930999,5812,993.4099731445312000,49.5765113830566400,675.1409301757812000,4.1282248497009280,53.7899818420410160,52,98,87,77,80,15308,2147758674,2147423378,2148014665,2147875273,2147641709,2147053814,2148259931,2147197284,48,4,13,14227
1376934599,5811,994.7000122070312000,50.5285491943359400,675.4666748046875000,4.1174430847167970,53.6670989990234400,52,98,83,78,79,15311,2147758372,2147424594,2148015542,2147877577,2147644662,2147053686,2148260416,2147199222,3176,4,13,41517
1376938199,5808,998.7500000000000000,50.5582695007324200,675.2294921875000000,4.1252918243408200,53.6602516174316400,52,97,85,78,79,15304,2147754203,2147424347,2148013302,2147876187,2147644461,2147052827,2148261677,2147196598,3532,4,13,30427
1376938555,5806,996.2999877929688000,50.3587417602539060,675.1173706054688000,4.1290001869201660,53.6851387023925800,51,97,87,79,79,15298,2147757723,2147425737,2148014966,2147876562,2147641645,2147059538,2148264064,2147202221,131,4,13,48607
